Regional Weather Roundup
Issued by NWS

Home | Current Version | Previous Version | Graphics & Text | Print | Product List | Glossary On
Versions: 1 2 3 4 5 6 7 8 9 10 11 12 13 14 15 16 17 18 19 20 21 22 23 24 25 26 27 28 29 30 31 32 33 34 35 36 37 38 39 40 41 42 43 44 45 46 47 48 49 50
000
ASUS45 KBOU 020407
RWRCO

WEATHER ROUNDUP FOR COLORADO
NATIONAL WEATHER SERVICE DENVER/BOULDER CO
1000 PM MDT TUE SEP 01 2015

NOTE: "FAIR" INDICATES FEW OR NO CLOUDS BELOW 12000 FEET WITH NO
SIGNIFICANT WEATHER AND/OR OBSTRUCTIONS TO VISIBILITY.

COZ001>005-013-030-031-020500-
...NORTHWEST COLORADO...

CITY           SKY/WX    TMP DP  RH WIND       PRES   REMARKS
CRAIG          CLOUDY    61  45  55 SE5       30.22R
HAYDEN         NOT AVBL
MEEKER         CLOUDY    60  47  61 NE7       30.23S
MOUNT WERNER   NOT AVBL
STEAMBOAT SPGS CLOUDY    58  46  66 E3        30.26R
WALDEN         MOCLDY    54  37  54 SW3       30.34R
$$

COZ006>008-011-020500-
...WEST CENTRAL VALLEYS...

CITY           SKY/WX    TMP DP  RH WIND       PRES   REMARKS
GRAND JUNCTION MOCLDY    67  49  52 N9        30.12R
MONTROSE       MOCLDY    69  48  47 SE9       30.24R
EAGLE          CLOUDY    61  48  63 NW14G26   30.34R
RIFLE          CLOUDY    61  52  72 S9        30.23F
DELTA          MOCLDY    74  46  37 E8        30.15R
NUCLA          MOCLDY    68  41  37 W5        30.23R
$$

COZ017>023-064>068-020500-
...SOUTHWEST COLORADO...

CITY           SKY/WX    TMP DP  RH WIND       PRES   REMARKS
DURANGO        MOCLDY    68  44  42 N6        30.25R
CORTEZ         MOCLDY    65  47  52 S6        30.19R
PAGOSA SPRINGS MOCLDY    62  40  43 NE3       30.33R
TELLURIDE      MOCLDY    55  50  85 E5        30.46R
WOLF CREEK PAS MOCLDY    46  37  71 SW15      30.66R
$$

COZ009-010-012-014-032>034-037-058>063-020500-
...CENTRAL COLORADO...

CITY           SKY/WX    TMP DP  RH WIND       PRES   REMARKS
ASPEN          LGT RAIN  56  46  69 N9G25     30.40R
BUENA VISTA    LGT RAIN  59  46  60 N6        30.36S
COPPER MTN     MOCLDY    50  37  62 SE10      30.62S
BERTHOUD PASS  FAIR      45  32  61 W6        30.66S
COTTONWOOD PAS LGT RAIN  54  41  62 W14G22    30.49R
GUNNISON       CLOUDY    61  46  59 SW20      30.40R
KREMMLING      MOCLDY    54  46  76 CALM      30.32R
LEADVILLE      CLOUDY    45  45 100 E3        30.49R
SALIDA         MOCLDY    66  44  44 NW13G18   30.39R
SUNLIGHT       CLOUDY    45  45 100 CALM      30.56F
WILKERSON PASS LGT RAIN  46  37  71 NW3       30.61R
$$

COZ069>075-020500-
...SAN LUIS VALLEY/SANGRE DE CRISTO MOUNTAINS...

CITY           SKY/WX    TMP DP  RH WIND       PRES   REMARKS
ALAMOSA        MOCLDY    57  46  66 W7        30.33R
LA VETA PASS   MOCLDY    54  39  58 MISG      30.50R
SAGUACHE       CLOUDY    59  46  63 NW9       30.35S
$$

COZ035-036-038>040-020500-
...NORTHERN COLORADO FRONT RANGE...

CITY           SKY/WX    TMP DP  RH WIND       PRES   REMARKS
DENVER INTL AP MOCLDY    67  46  47 S12       30.11R
DMNS CITY PARK   N/A     71  46  40 S10       30.11S
AURORA         MOCLDY    70  46  42 S14       30.13S
FRONT RANGE AP NOT AVBL
ERIE MUNI ARPT PTCLDY    69  46  44 CALM      30.09R
BOULDER MUN AP PTCLDY    68  43  40 W5        30.09R
CENTENNIAL     MOCLDY    68  47  46 S12       30.15R
BROOMFIELD     PTCLDY    70  46  43 S7        30.13R
FORT COLLINS   CLEAR     68  45  42 S9        30.08R
LONGMONT       CLEAR     62  47  58 CALM      30.10R
$$

COZ041-046-047-076>085-087-088-020500-
...PIKES PEAK/PALMER DIVIDE AND SOUTHERN FOOTHILLS...

CITY           SKY/WX    TMP DP  RH WIND       PRES   REMARKS
COLO. SPRINGS  MOCLDY    63  53  70 N3        30.20S
A. F. ACADEMY  CLOUDY    60  52  74 N8        30.22R
ELLICOTT       MOCLDY   N/A N/A N/A S7        30.19R THUNDER
FALCON         MOCLDY    57  48  71 MISG      30.26R
FORT CARSON    CLOUDY    68  47  47 W5        30.17S
LIMON          MOCLDY    64  48  56 CALM      30.11S
MONUMENT HILL  MOCLDY    59  45  58 SW9       30.26R
TRINIDAD       PTCLDY    70  46  42 CALM      30.15R
$$

COZ042>045-048>051-090-091-020500-
...NORTHEAST COLORADO...

CITY           SKY/WX    TMP DP  RH WIND       PRES   REMARKS
GREELEY ARPT   CLEAR     68  46  45 W3        30.06R
AKRON          CLEAR     74  48  39 S12       30.05R
BURLINGTON     PTCLDY    69  58  67 S9        30.04S
WRAY           CLOUDY    76  56  49 S14G21    29.98S
STERLING       NOT AVBL
HOLYOKE        CLEAR     68  55  64 S10       29.98R
FORT MORGAN    CLEAR     70  41  35 CALM      30.03S
$$

COZ086-089-092>099-020500-
...SOUTHEAST COLORADO...

CITY           SKY/WX    TMP DP  RH WIND       PRES   REMARKS
PUEBLO         MOCLDY    72  54  53 NE12      30.07F
LA JUNTA       PTCLDY    78  50  37 W7        30.04R
LAMAR          CLEAR     70  55  59 SW3       29.99R
SPRINGFIELD      N/A     72  55  55 SW13G20   30.06R
$$




USA.gov is the U.S. government's official web portal to all federal, state and local government web resources and services.